Theta_e
301 301 302 301 301 301 301 302 302 302 302 303 302 302 301 300 300 300 300 299 299 299 299 298 298 298 298 298 298 298 298 298 298 298 298 298 298 298 299 299 299 300 300 301 301 301 302 302 302 302 303 303 304 304 304 304 303 302 301 301 302 303 304 305 305 305 305 305 305 304 303 302 302 302 302 304 306 310 315 319 321 322 322 323 324 325
300 300 300 300 300 300 300 300 301 301 301 300 300 300 299 299 299 298 298 298 298 298 298 298 298 298 297 297 297 297 297 297 297 297 297 297 297 297 297 298 299 299 300 301 302 302 303 303 303 304 304 304 304 304 304 303 302 301 300 301 302 303 305 305 305 306 306 306 305 304 303 302 301 301 301 301 303 305 310 315 319 321 321 321 323 324
300 300 300 300 299 300 300 300 300 300 299 299 299 298 298 298 298 298 298 298 298 298 298 298 297 297 297 296 296 296 295 295 295 295 295 295 295 296 296 296 297 297 298 299 300 300 301 301 302 302 302 303 303 303 303 302 301 301 301 302 303 304 305 306 306 306 306 305 305 304 303 301 301 300 300 300 300 302 305 310 315 318 320 320 321 322
299 299 299 298 298 298 298 299 298 298 298 298 297 297 297 297 297 297 297 297 297 297 297 297 296 296 295 295 295 294 294 294 294 294 295 295 295 295 295 296 296 296 296 297 297 298 298 299 299 300 301 301 301 302 301 301 301 301 302 303 305 306 306 307 307 306 305 304 303 303 302 301 300 299 299 299 300 300 302 306 310 315 318 319 319 321
297 297 297 297 297 297 297 297 297 297 296 296 296 296 296 296 296 296 296 295 295 295 295 295 295 294 294 294 293 293 293 294 294 294 294 294 295 295 295 295 295 296 296 296 297 297 298 298 299 300 300 301 301 301 301 302 302 303 304 305 306 307 307 306 305 304 303 302 302 301 301 300 300 299 299 299 300 300 300 302 306 310 314 317 318 319
296 296 296 296 295 295 295 295 295 295 295 295 295 295 295 294 294 294 294 294 294 294 294 293 293 293 293 293 293 293 293 294 294 294 294 294 294 294 295 295 295 296 296 296 296 296 297 297 298 298 299 299 300 300 301 301 302 303 304 304 305 305 304 303 302 301 301 301 301 301 300 300 300 300 300 300 301 301 301 301 303 307 311 314 316 317
295 295 295 294 294 294 294 294 294 294 294 294 294 294 294 294 294 294 293 293 293 293 293 293 293 293 293 293 293 293 293 293 293 293 294 294 294 294 295 295 295 295 295 295 295 295 295 295 296 296 296 297 297 298 299 300 300 301 301 302 302 302 302 302 301 301 301 301 301 301 301 301 301 301 301 301 302 301 301 301 302 304 307 311 313 315
294 294 294 294 294 294 294 294 294 294 294 294 293 293 293 293 293 293 293 293 293 293 293 293 293 293 293 293 293 293 293 293 293 293 293 293 293 294 294 294 294 294 294 294 294 294 294 294 294 294 295 295 296 297 298 298 299 300 300 301 301 302 302 302 302 302 302 302 302 302 302 302 302 302 302 302 302 302 302 302 302 303 305 308 310 313
292 293 293 293 293 293 293 293 293 293 293 293 293 293 293 293 293 293 293 293 293 293 293 293 292 292 292 292 292 292 292 292 292 292 292 292 293 293 293 293 293 293 293 293 293 293 293 293 294 294 294 295 295 296 297 298 299 300 300 301 301 302 302 303 303 303 303 303 303 303 303 302 302 302 303 303 303 302 302 302 302 303 304 306 308 310
291 291 291 291 292 292 292 292 292 292 292 292 292 292 292 292 292 292 292 292 292 292 292 291 291 291 291 291 291 291 292 292 292 292 292 292 291 291 291 292 292 292 292 292 293 293 293 293 293 293 294 294 294 295 296 297 299 300 301 301 301 302 302 303 303 303 303 303 303 303 303 303 303 302 302 303 302 302 302 302 302 302 303 304 306 308
290 290 290 290 290 290 290 290 291 291 291 291 291 291 291 291 291 291 290 290 290 290 290 290 290 290 290 290 290 291 291 291 291 291 291 291 291 291 291 291 291 292 292 292 292 293 293 293 293 293 293 293 294 294 295 296 297 298 299 300 301 301 301 301 301 302 302 302 302 303 302 302 302 302 302 302 302 301 301 301 301 301 302 303 305 306
290 290 290 290 290 290 290 290 290 290 290 290 290 290 290 290 290 290 289 289 289 290 290 289 289 289 289 290 290 290 290 290 290 290 290 290 290 290 291 291 291 292 292 292 292 292 292 292 293 293 293 293 293 293 293 294 295 296 297 298 298 298 298 298 298 298 298 299 300 300 301 301 301 301 300 300 300 300 299 299 299 299 299 301 303 305
290 290 290 290 290 290 289 289 289 289 289 289 289 289 289 289 289 289 289 289 289 289 289 289 289 289 289 289 289 289 289 289 290 290 290 290 290 291 291 291 291 292 292 292 292 292 292 292 292 292 292 292 292 292 293 293 293 294 294 295 295 295 295 295 295 295 295 295 296 296 297 297 298 298 298 297 297 297 297 296 296 297 297 298 300 303
290 290 290 290 290 290 289 289 289 289 289 289 289 289 289 289 289 289 288 288 288 288 288 288 288 288 289 289 289 289 289 289 290 290 290 290 291 291 291 291 291 292 292 292 292 292 292 292 292 292 292 292 292 292 292 292 292 292 292 292 293 293 293 293 293 293 293 293 293 294 294 294 294 294 294 294 294 293 294 294 294 295 296 297 298 301
291 290 290 290 290 290 289 289 289 289 289 289 289 289 289 288 288 288 288 288 288 288 288 288 288 288 288 289 289 289 289 289 290 290 290 290 291 291 291 291 291 291 291 291 291 291 291 291 291 291 291 291 291 291 291 291 291 291 291 291 291 291 291 291 291 292 292 292 292 292 292 292 292 292 292 291 291 291 292 292 293 294 295 296 297 299
291 291 290 290 290 290 290 289 289 289 289 289 289 289 289 288 288 288 288 288 288 288 288 288 288 288 288 288 289 289 289 289 290 290 290 290 290 290 290 290 290 290 290 290 290 290 291 291 290 290 291 290 290 290 290 290 290 290 290 290 290 290 290 290 290 290 290 291 291 292 292 292 292 292 291 291 291 291 291 292 293 294 295 295 296 298
290 290 290 290 290 290 290 290 289 289 289 289 289 289 289 289 289 288 288 288 288 288 288 288 288 288 288 288 288 288 289 289 289 289 289 289 289 289 289 289 289 289 289 289 289 290 290 290 290 290 290 290 290 289 289 289 289 289 289 289 289 289 289 289 290 290 290 291 291 292 293 293 293 293 292 292 292 292 292 293 294 295 296 296 297 298
289 289 290 290 289 289 289 289 289 289 289 289 289 289 289 289 289 288 288 288 288 288 288 288 288 287 287 288 288 288 288 288 288 288 288 288 288 288 288 288 289 289 289 290 290 290 290 289 289 289 289 289 288 288 288 288 288 288 289 289 289 289 290 290 291 291 291 292 292 293 294 294 294 294 294 294 293 293 293 294 295 295 296 297 298 299
289 289 288 288 288 288 288 288 288 288 288 288 288 288 288 288 288 288 288 288 288 288 288 288 288 288 288 288 288 288 288 288 288 288 288 288 288 289 289 290 290 290 290 290 290 289 289 289 288 288 288 288 288 288 288 288 288 289 289 289 290 291 291 292 292 293 293 293 294 294 295 295 295 295 295 295 295 294 294 295 295 296 296 297 298 299
288 288 288 288 288 287 287 287 287 287 287 287 287 287 287 287 287 287 287 287 287 288 288 288 288 288 288 288 288 288 288 289 289 289 289 290 291 291 290 290 290 289 289 289 289 288 288 288 288 288 288 288 288 288 288 288 289 289 290 290 291 292 292 293 293 293 294 294 294 295 295 295 295 296 296 296 296 295 295 295 295 296 297 297 298 299
287 287 287 287 287 286 286 286 286 286 286 286 286 286 286 286 286 286 286 286 287 287 288 288 288 288 288 288 288 288 288 289 289 290 290 290 289 289 288 288 288 288 288 288 288 288 288 288 288 288 288 288 288 288 288 289 289 290 290 291 291 292 292 292 293 293 294 294 294 295 295 295 296 296 296 296 296 296 296 296 296 296 296 297 298 299
287 286 286 286 286 286 286 286 286 286 286 286 286 286 286 286 286 286 286 287 287 287 288 288 288 287 287 287 287 287 288 288 288 289 289 288 288 288 288 288 287 287 287 287 287 287 288 288 288 288 288 288 288 288 288 289 289 290 290 290 291 291 291 292 292 293 294 294 294 295 295 295 295 296 296 296 296 296 295 295 295 296 296 297 297 298
287 287 287 287 287 286 286 286 287 287 287 287 286 286 286 286 286 286 287 287 287 287 288 288 288 288 288 288 288 288 288 288 288 288 288 288 288 288 288 287 287 287 287 287 287 287 288 288 288 288 288 288 288 288 288 289 289 289 290 290 290 291 291 292 292 292 293 293 294 294 294 294 295 295 295 295 295 294 294 294 295 296 296 297 297 298
287 287 287 287 287 287 287 287 287 287 287 287 287 287 287 287 287 287 287 287 287 287 288 288 288 288 288 288 288 288 288 288 288 288 288 288 288 288 288 288 287 287 287 287 287 287 288 288 288 288 288 288 288 288 288 289 289 289 289 289 290 290 290 291 291 292 292 293 293 293 293 294 294 294 294 294 294 295 295 296 296 296 297 297 298 298
288 288 288 288 288 288 288 288 288 288 288 288 288 288 288 288 288 288 288 287 287 288 288 289 289 289 288 288 288 288 288 288 288 288 288 288 288 288 288 288 287 287 287 287 288 288 288 288 288 288 288 288 288 288 288 288 288 289 289 289 289 290 290 291 291 291 292 292 292 292 293 293 293 294 294 295 296 296 297 297 297 298 298 298 299 299
289 289 289 289 289 289 290 290 290 290 290 290 289 289 289 289 289 288 288 288 288 288 289 289 288 288 288 287 287 287 287 288 288 289 288 288 288 288 288 288 288 288 288 288 288 288 288 288 288 288 288 288 288 288 288 288 288 288 288 289 289 289 290 290 291 291 291 292 292 292 293 293 294 295 295 296 296 296 297 297 297 297 298 298 298 299
288 288 288 289 289 289 289 289 289 290 290 290 290 290 290 290 290 290 289 289 289 288 288 288 287 287 287 287 287 288 288 289 289 289 289 288 288 288 288 288 288 288 288 288 288 288 288 288 289 289 289 288 288 288 288 288 288 288 288 289 289 289 289 290 290 290 291 292 292 292 293 294 294 295 295 295 295 295 295 295 296 296 296 297 297 297
288 288 288 288 288 288 288 288 288 289 289 289 289 290 290 290 290 290 290 289 289 288 288 287 287 287 288 288 288 288 289 289 290 290 289 289 288 288 288 289 289 288 288 289 289 289 289 289 289 289 288 288 288 288 288 288 288 288 289 289 289 289 289 289 289 289 290 290 291 292 293 294 294 294 294 294 294 294 294 294 294 294 294 295 296 297
287 287 288 288 288 288 288 288 288 288 288 288 288 289 289 289 289 289 289 288 288 288 287 287 288 288 288 288 288 288 288 288 289 289 290 290 289 289 289 289 289 289 289 289 289 289 289 288 288 288 288 288 288 288 288 288 289 289 289 289 289 289 289 289 288 288 289 289 290 291 292 293 293 293 293 293 293 293 293 292 292 293 294 295 296 297
287 287 288 287 288 288 288 288 287 287 287 287 287 288 288 288 288 288 288 287 287 287 287 287 287 288 288 288 288 287 287 287 288 289 290 290 290 290 289 289 289 289 289 288 288 288 288 288 288 288 288 288 288 288 288 288 289 289 289 289 289 289 289 288 288 288 288 289 290 291 292 292 292 292 292 292 292 292 292 292 292 293 294 295 296 298
287 287 287 287 287 287 287 287 287 287 287 287 287 287 287 287 287 287 287 287 287 287 287 287 287 287 287 287 287 287 287 287 287 288 288 289 289 289 288 288 288 288 288 288 288 288 287 287 287 287 288 288 288 288 288 288 288 288 288 288 288 288 288 288 288 288 288 289 290 291 291 291 291 291 291 291 291 291 291 291 292 293 295 296 297 297
285 286 286 286 286 285 285 285 285 286 286 286 286 286 286 286 286 286 286 286 286 286 286 286 287 287 287 287 287 287 287 287 287 287 287 287 287 287 287 287 287 287 287 287 287 287 287 287 287 287 287 287 287 287 288 288 288 288 288 288 288 288 287 288 288 288 288 289 290 291 291 291 290 290 290 290 290 290 290 291 292 293 295 296 297 297
284 284 284 284 284 284 284 284 284 284 285 285 285 286 286 286 286 286 286 286 286 286 286 286 286 286 286 286 286 287 287 287 286 286 286 287 287 287 287 287 287 287 287 287 287 287 287 287 287 287 287 287 287 287 287 287 287 287 287 287 287 287 288 288 288 288 289 289 290 290 290 290 289 289 289 289 290 290 291 291 292 293 295 296 297 297
282 282 282 282 282 282 283 283 283 283 284 285 285 285 285 285 285 285 285 285 285 286 286 286 286 286 286 286 286 286 286 286 286 286 286 286 287 287 287 287 287 287 287 287 287 287 287 287 287 287 287 287 287 287 287 287 287 287 287 288 288 288 288 288 288 289 289 289 289 289 289 289 288 288 289 289 290 290 291 291 292 293 294 295 296 297
281 281 281 281 282 282 282 282 282 283 283 283 283 283 283 283 283 283 284 285 286 286 287 286 286 286 286 285 285 285 285 285 285 285 286 286 287 287 287 287 287 287 287 288 288 288 288 288 288 288 288 288 288 288 288 288 288 288 288 288 288 288 289 289 289 289 289 289 289 288 288 288 288 288 288 289 289 290 290 291 291 292 293 294 294 295
280 280 281 281 281 281 281 282 282 282 282 282 282 282 283 283 284 285 285 285 285 284 284 284 284 284 284 284 285 285 284 285 285 285 285 286 286 287 287 287 287 287 287 287 288 288 288 288 289 289 289 289 289 289 289 288 289 289 289 289 289 289 289 289 289 289 289 288 288 288 288 288 288 288 288 289 289 289 290 290 291 291 292 292 293 294
280 280 280 280 281 281 281 281 282 282 282 283 283 283 283 283 284 283 283 283 282 282 282 282 283 283 283 283 283 284 284 284 285 285 285 285 286 286 286 286 286 286 287 287 287 287 288 288 288 288 288 288 288 288 288 288 288 288 288 289 289 289 289 289 289 289 288 288 288 288 288 288 288 288 288 288 289 289 289 290 290 290 291 291 292 292
279 280 280 280 280 281 281 281 281 282 282 282 282 282 282 282 282 282 282 282 282 282 282 282 282 282 282 282 283 283 283 283 284 284 284 284 284 285 285 285 285 286 286 286 286 286 287 287 287 287 287 286 286 287 287 287 287 287 287 287 288 288 288 288 288 288 288 288 288 288 288 288 288 288 288 288 289 289 289 289 290 290 290 291 291 291
280 280 280 280 280 281 281 281 281 281 281 281 281 281 282 282 282 282 282 282 283 283 283 283 283 283 283 283 283 283 283 283 283 283 283 284 284 284 284 284 284 285 285 285 286 286 286 286 286 286 286 286 286 286 286 286 286 286 286 287 287 287 287 287 287 287 287 287 287 287 288 288 288 288 288 288 289 289 289 289 289 290 290 290 290 291
280 280 280 280 281 281 281 281 281 281 281 282 282 282 282 282 282 283 283 283 283 283 283 283 283 283 283 283 283 283 283 283 283 284 283 283 283 283 283 283 284 284 284 284 285 285 285 285 286 286 286 286 286 286 286 286 286 286 286 287 287 287 287 287 287 287 287 287 287 287 287 288 288 288 288 288 288 289 289 289 289 289 290 290 290 291
280 280 281 281 281 281 281 282 282 282 282 282 282 282 282 282 282 282 282 282 282 282 282 282 282 282 283 283 282 282 282 283 283 283 283 283 283 283 283 283 283 284 284 284 284 285 285 285 285 285 285 286 286 286 286 286 286 286 287 287 287 287 287 287 287 287 287 287 287 287 287 288 288 288 288 288 289 289 289 289 289 289 289 290 290 291
281 281 281 281 281 282 282 281 281 281 281 280 280 280 280 280 280 280 280 280 280 281 281 281 281 282 282 282 282 282 282 282 282 283 284 284 284 284 284 284 284 284 284 284 284 285 285 285 285 285 285 286 286 286 286 286 286 286 287 287 287 287 287 287 287 287 287 287 287 287 288 288 288 288 289 289 289 289 289 289 289 290 290 290 291 291
281 281 281 281 281 280 280 280 279 279 279 279 279 279 279 279 279 279 280 280 280 281 281 281 282 282 282 282 283 283 284 284 284 284 283 282 282 281 282 282 283 283 284 284 285 285 285 285 285 285 286 286 286 286 286 287 287 287 287 287 287 287 287 287 287 287 287 287 288 288 288 288 289 289 289 289 289 289 289 289 289 290 290 290 291 292
280 280 279 279 279 279 278 278 278 278 278 278 279 279 279 279 279 280 280 281 281 281 282 282 282 282 283 283 283 283 282 281 281 281 280 281 281 281 281 282 282 283 284 284 285 285 285 285 285 286 286 286 286 286 286 287 287 287 287 287 287 287 287 287 287 288 288 288 288 289 289 289 289 289 289 289 289 289 289 289 289 289 289 290 291 292
279 279 278 278 278 278 278 278 278 278 278 279 279 279 279 279 279 280 280 281 281 281 281 281 281 281 281 280 280 280 280 280 280 281 281 281 281 281 281 282 282 282 283 284 285 285 285 286 286 286 286 286 286 287 287 287 287 287 287 287 287 288 288 288 288 288 288 289 289 289 289 289 289 289 289 289 289 288 288 288 288 288 289 289 290 291
278 278 278 278 278 278 278 278 278 278 278 278 278 279 279 279 279 280 280 280 280 280 280 280 280 280 280 280 280 280 280 280 280 280 281 281 281 281 281 281 281 282 282 283 284 284 285 286 286 286 287 287 287 287 287 287 287 287 287 288 288 288 288 288 288 288 289 289 289 289 289 288 288 288 288 288 288 288 288 288 288 288 289 289 289 290
278 278 278 278 278 278 278 278 278 278 278 278 278 278 279 279 279 279 279 279 279 280 280 280 280 280 280 280 280 280 280 280 280 280 281 281 281 281 281 281 281 282 282 282 283 283 284 285 285 286 287 287 287 287 287 287 287 288 288 288 288 288 288 288 288 288 288 288 288 288 288 288 288 288 288 288 288 288 288 288 288 289 289 289 289 290
278 278 278 278 278 278 278 278 278 278 278 278 278 278 278 279 279 279 279 279 279 279 279 279 280 280 280 280 280 280 280 280 280 281 281 281 281 281 281 282 282 282 282 282 282 283 283 283 284 285 285 286 287 287 287 288 288 288 288 288 288 288 288 288 288 288 288 288 288 288 288 288 288 288 288 288 289 289 289 289 289 289 289 289 290 290
278 278 278 278 278 278 278 278 278 278 278 278 278 278 278 278 278 279 279 279 279 279 279 279 279 279 279 279 279 280 280 280 280 280 280 280 281 281 281 281 282 282 282 282 283 283 283 283 284 284 284 285 286 286 287 287 287 288 288 288 288 288 288 288 288 288 287 287 287 287 287 288 288 288 288 289 289 289 289 289 289 289 289 290 290 290
277 277 277 277 277 277 278 278 278 278 278 278 278 278 278 278 278 278 278 278 278 278 278 278 278 279 279 279 279 279 279 279 279 280 280 280 280 281 281 281 282 282 283 283 283 283 284 284 284 284 285 285 285 286 286 286 287 287 287 287 287 288 288 288 287 287 287 287 287 287 288 288 288 288 289 289 289 289 289 289 289 289 290 290 290 290
277 277 277 277 277 277 277 278 278 278 278 278 278 278 278 278 278 278 278 278 278 278 278 278 278 278 278 278 278 279 279 279 279 279 280 280 280 281 281 281 282 282 283 283 284 284 284 285 285 285 285 285 286 286 286 286 287 287 287 287 287 287 287 287 287 287 287 287 287 288 288 288 288 289 289 289 289 290 290 290 290 290 290 290 290 291
Wind_Speed
17 18 18 17 17 18 19 18 18 19 20 20 19 18 18 18 19 20 20 22 23 24 24 23 22 21 20 19 19 19 20 20 20 21 21 21 21 20 20 20 20 20 20 21 21 21 22 22 22 23 23 24 24 25 25 26 26 26 26 25 25 24 24 24 24 24 24 24 23 23 22 22 23 23 24 25 25 26 26 25 24 23 23 24 28 31
15 15 15 14 14 15 17 17 16 16 17 18 18 17 18 18 19 20 20 21 22 24 24 25 25 24 24 23 22 22 22 22 23 23 23 22 22 21 21 20 20 20 20 20 20 20 20 21 21 22 22 23 24 25 26 26 27 27 26 26 25 25 24 24 24 24 24 24 24 24 23 23 24 24 24 25 25 25 25 25 25 24 23 23 25 29
13 14 14 14 14 15 16 17 16 17 18 18 18 18 18 19 20 21 21 22 23 24 25 26 26 26 26 26 25 25 25 25 25 25 24 24 23 23 22 22 21 21 20 20 20 20 20 21 21 21 22 23 24 25 26 27 27 27 27 26 25 25 24 24 23 23 23 24 24 25 25 25 25 25 25 25 25 25 25 25 25 25 24 23 24 26
13 13 14 15 15 16 17 17 18 18 19 19 18 18 18 19 19 20 20 21 22 23 25 26 26 27 27 27 27 27 27 26 26 25 24 24 23 23 23 23 22 22 21 21 20 20 20 21 21 22 22 23 24 25 25 26 26 26 26 25 24 23 22 22 22 22 23 24 24 25 25 26 26 26 25 25 25 24 24 25 25 26 25 24 23 24
13 13 14 14 14 15 15 16 16 17 18 18 18 18 18 18 19 19 20 20 22 23 25 26 27 28 28 28 28 27 26 26 25 24 23 23 23 22 22 21 21 20 20 20 19 19 20 20 20 20 21 21 22 22 23 23 24 24 23 22 20 20 19 19 20 21 22 23 24 25 25 26 26 26 25 25 25 24 24 24 25 26 26 25 24 24
14 14 14 14 14 14 14 14 15 16 17 18 18 18 19 19 19 20 21 21 22 24 25 26 27 27 27 26 26 25 24 23 22 22 22 21 21 20 20 19 19 19 19 19 19 19 19 19 19 19 19 19 19 19 20 20 20 20 19 18 17 17 18 19 20 21 22 23 23 24 24 25 25 25 25 25 24 24 23 23 24 25 26 26 25 24
15 15 14 14 14 15 14 15 15 16 17 18 18 19 19 20 20 20 20 21 21 22 23 24 24 24 23 23 22 22 21 21 20 20 20 20 19 19 18 18 18 19 19 19 19 19 19 19 19 19 19 19 19 19 19 19 18 18 17 17 17 18 19 20 20 21 21 21 22 22 23 23 24 24 24 24 23 23 23 22 23 23 25 26 26 25
15 15 14 14 14 15 15 15 15 15 15 16 17 18 18 18 18 18 19 19 19 19 19 19 19 19 19 19 19 19 19 20 20 20 20 20 20 20 20 20 20 21 21 21 21 21 20 20 20 20 20 19 19 19 19 18 18 17 17 17 18 18 19 20 20 20 20 20 20 21 21 22 23 23 23 23 23 22 22 22 22 22 23 25 25 25
14 14 14 13 13 14 14 14 14 13 14 15 16 16 17 17 17 17 17 17 16 15 15 15 16 17 17 17 18 18 19 20 20 21 21 22 22 22 22 23 23 23 23 23 22 21 21 20 20 20 20 20 19 19 19 18 18 17 17 18 18 19 19 19 19 19 18 19 19 20 20 21 22 23 23 23 23 22 22 21 21 21 22 23 25 26
13 14 14 13 13 13 13 14 14 14 14 15 16 16 16 16 16 16 16 15 14 13 13 14 16 17 19 19 19 20 21 22 23 23 23 24 24 25 25 25 25 24 24 23 22 21 21 21 21 21 20 20 20 19 19 18 18 17 18 18 18 18 18 18 17 17 17 17 18 19 20 21 21 22 23 23 23 23 23 22 21 21 22 22 24 25
13 13 13 14 14 13 14 14 15 15 15 16 17 17 16 15 14 14 15 15 15 15 16 16 17 19 20 21 22 22 23 24 25 26 26 26 26 26 26 26 25 24 23 22 22 22 21 21 21 21 21 20 20 20 20 19 19 18 18 18 18 18 18 18 17 17 17 17 18 19 20 21 21 22 23 24 24 25 25 25 24 23 22 22 23 24
13 13 13 13 14 14 14 14 15 15 15 16 16 15 14 14 13 14 15 16 17 18 19 19 20 20 20 21 22 23 23 24 25 26 26 27 26 26 25 24 23 23 23 23 22 22 22 22 22 21 21 21 21 21 21 21 20 20 20 20 20 20 20 20 20 20 19 19 20 20 21 22 23 23 24 25 26 27 28 28 27 26 25 24 24 24
14 13 13 13 13 13 13 14 14 14 14 13 13 13 13 14 15 16 17 18 19 19 20 21 21 21 21 21 21 22 22 23 23 24 24 24 23 22 22 22 22 22 22 23 23 23 23 23 23 23 23 23 23 23 23 23 23 23 23 23 23 23 24 24 24 24 24 24 24 24 24 25 25 26 27 27 28 29 30 30 30 29 28 27 25 24
14 13 13 13 13 12 12 13 13 13 13 13 13 14 15 17 18 18 18 19 19 19 20 20 21 21 21 20 20 20 20 21 21 21 21 21 20 19 19 20 21 22 22 23 24 24 24 24 24 25 25 25 25 25 25 25 25 26 26 26 26 27 27 27 27 27 28 28 28 28 28 29 29 30 30 31 31 31 31 31 32 31 30 29 27 26
12 12 11 11 11 12 12 12 13 13 14 14 15 16 17 18 18 17 17 17 18 19 19 20 21 21 19 18 17 16 17 18 19 19 19 19 19 18 19 21 22 23 24 25 26 26 26 26 27 27 27 28 28 28 28 28 28 28 29 29 29 29 29 30 30 30 30 30 30 30 30 31 31 32 32 32 32 32 31 31 31 31 31 30 29 27
10 10 9 9 10 12 12 12 13 14 14 15 15 16 16 17 17 16 16 17 17 17 17 17 17 17 17 16 14 13 14 16 17 18 18 20 20 19 20 22 24 25 26 27 28 28 29 29 29 30 30 30 31 31 30 30 30 30 30 30 30 30 30 30 31 31 31 30 30 30 29 30 30 30 30 30 30 30 30 30 30 30 30 30 29 28
11 11 10 10 11 12 13 13 13 14 14 15 15 15 15 16 16 16 16 16 16 16 15 14 9 7 10 15 14 12 12 15 17 18 20 21 22 22 22 23 25 26 26 27 29 30 30 31 32 32 32 32 32 32 31 30 30 29 29 28 28 28 28 28 29 29 29 29 28 28 27 27 27 27 27 27 27 28 28 28 28 29 29 29 29 28
13 13 13 13 13 15 15 15 15 15 16 16 16 16 16 16 16 15 15 15 15 15 15 14 11 7 6 11 14 13 13 16 19 20 21 23 24 23 22 22 23 24 24 25 27 29 30 32 33 33 33 33 32 31 30 29 28 27 27 26 26 25 25 25 26 26 26 26 26 26 25 25 25 25 25 25 25 26 26 27 27 28 28 28 28 28
15 15 15 15 16 17 18 18 18 18 18 17 17 17 17 17 16 16 16 16 16 16 16 14 14 13 12 15 17 17 16 18 20 20 21 23 23 21 18 17 19 21 23 24 26 27 29 31 32 32 32 31 30 29 28 27 26 25 25 24 24 24 24 24 24 24 25 25 25 25 25 25 25 25 25 25 25 26 26 27 27 28 28 28 28 28
15 16 17 17 17 18 19 18 18 17 17 18 18 18 18 18 19 19 19 19 18 18 17 16 15 15 15 17 19 19 16 17 18 18 19 19 19 17 16 17 19 22 23 25 26 27 28 30 30 30 30 29 28 27 26 26 25 24 24 24 24 24 24 24 24 24 25 25 25 25 25 25 25 25 25 26 26 26 27 27 27 28 28 28 28 28
17 17 17 17 17 17 17 18 18 18 19 19 19 19 19 19 19 19 19 18 18 17 16 16 16 17 17 19 20 20 18 18 19 19 18 19 21 22 20 20 22 24 25 26 26 27 27 28 28 28 28 27 27 26 26 25 25 24 24 24 24 24 24 24 24 24 25 25 25 25 25 25 25 25 26 26 26 27 27 27 27 28 28 28 28 28
19 19 20 20 19 19 19 21 21 22 21 21 20 20 19 18 18 18 18 18 18 18 18 18 19 20 21 22 23 23 22 22 22 21 20 19 22 23 21 20 21 23 24 25 25 26 26 27 27 27 27 26 26 25 25 25 25 25 25 25 25 25 25 25 25 25 24 24 25 25 25 25 25 26 26 26 27 27 28 28 28 28 28 28 28 28
22 22 23 22 22 22 22 23 23 23 23 22 22 22 21 20 20 20 20 20 20 21 21 22 22 23 23 23 23 23 23 23 23 22 20 15 17 21 20 19 20 22 23 24 24 25 26 26 26 26 26 26 26 25 25 25 25 26 26 27 27 26 26 26 25 25 25 24 24 25 25 25 26 26 26 27 27 28 28 28 28 28 28 28 28 29
23 23 22 22 22 22 23 23 24 24 24 24 24 24 24 24 25 26 25 25 24 23 23 22 21 21 20 20 21 22 22 21 22 22 20 17 19 21 20 19 20 21 23 23 24 24 25 26 26 25 26 26 25 25 25 26 26 27 27 28 28 28 27 26 26 25 25 25 25 25 25 25 26 26 27 27 27 27 27 28 28 28 28 28 28 29
21 21 21 21 21 22 22 23 24 24 25 25 25 26 26 27 28 28 28 27 25 22 20 18 17 17 18 19 20 21 21 20 20 22 20 18 19 21 21 20 20 22 23 23 23 23 24 25 25 24 25 25 25 25 25 26 27 27 28 28 28 28 27 27 26 26 25 25 25 25 25 26 26 26 26 25 25 25 25 25 25 26 26 27 27 28
21 22 23 23 23 24 25 25 26 26 26 26 25 25 25 25 25 25 24 22 19 16 14 13 13 15 19 20 21 22 22 21 21 22 22 18 18 20 21 20 21 22 24 23 22 22 23 24 24 23 24 25 26 26 26 27 28 28 28 28 28 27 27 27 26 26 26 25 25 25 25 25 25 24 23 22 22 22 22 23 24 24 25 25 26 27
22 23 24 24 25 25 25 26 26 26 27 27 27 25 23 23 22 19 16 13 11 11 13 11 10 12 17 19 20 21 20 19 19 20 21 20 19 20 22 21 21 22 23 22 21 21 22 23 23 23 24 25 26 26 27 28 28 28 27 26 26 26 26 26 26 26 26 26 26 25 25 23 22 21 20 20 20 20 21 22 24 25 25 26 26 27
23 24 24 25 25 25 25 25 25 25 25 25 26 25 23 23 21 19 16 14 14 16 17 14 11 9 12 15 19 20 19 17 17 18 19 19 19 19 22 21 20 21 21 19 18 18 20 21 22 22 23 25 26 26 27 27 26 25 25 24 24 24 25 26 27 27 27 27 26 24 23 21 21 20 20 20 20 20 22 23 24 25 26 27 27 26
24 24 24 25 25 25 25 25 25 25 25 25 24 24 23 22 22 22 22 21 20 20 21 20 17 14 14 17 20 21 21 21 20 19 18 17 17 18 18 15 16 17 15 14 14 16 17 19 20 21 22 23 24 25 25 25 24 23 23 23 23 23 25 27 28 29 29 28 26 24 22 21 21 21 20 20 20 21 22 23 24 25 26 26 25 25
22 23 23 24 24 24 24 24 25 25 25 25 24 23 23 23 24 25 25 24 23 22 21 20 19 17 16 16 15 15 17 20 18 15 14 13 13 12 10 10 12 13 11 9 8 9 14 17 18 19 21 22 22 23 23 23 23 23 23 23 23 25 27 29 31 32 32 30 28 25 23 22 21 21 21 22 22 23 24 24 24 24 24 24 23 23
20 21 21 22 22 22 22 23 23 24 24 24 24 24 24 24 25 26 26 25 24 23 22 20 19 18 17 11 7 5 7 15 15 12 12 12 12 11 10 11 13 15 13 9 4 3 8 12 15 18 19 21 22 22 22 23 23 23 23 24 25 28 30 32 33 34 33 31 29 26 24 23 23 23 24 24 25 26 26 26 25 24 24 23 23 23
21 21 21 21 21 21 22 22 23 23 24 24 24 24 24 25 25 26 25 24 23 22 22 21 20 19 19 15 11 9 10 16 16 14 14 15 17 17 15 14 17 19 18 15 11 8 6 6 11 18 19 22 23 23 23 24 25 25 25 26 28 31 32 33 33 33 32 31 29 27 26 25 25 26 27 28 28 28 28 27 26 25 24 24 24 24
21 20 20 21 21 22 22 22 23 23 23 22 22 23 23 23 23 22 22 22 22 21 21 20 19 20 20 21 19 18 18 18 17 16 16 17 18 18 16 15 17 19 19 18 18 17 13 12 15 20 22 24 25 24 24 25 27 27 28 29 30 32 32 32 32 32 31 30 29 28 28 28 29 29 28 28 28 27 27 26 25 24 24 24 25 25
21 21 21 22 22 22 21 21 21 21 21 20 20 20 21 22 22 23 23 23 23 23 22 20 19 19 18 16 16 17 18 18 17 16 16 17 17 15 14 14 15 16 17 16 16 18 19 20 21 21 22 25 26 25 25 25 27 28 29 30 31 32 31 30 30 30 30 29 28 29 30 30 31 30 28 27 26 26 25 25 25 24 24 25 26 25
20 21 21 20 20 20 20 19 19 19 19 20 20 21 22 23 24 25 25 24 22 20 19 19 19 19 17 16 15 16 19 20 19 18 17 18 18 16 15 15 15 16 16 16 15 15 15 18 20 19 18 19 21 22 22 22 24 25 27 28 29 30 29 28 27 27 28 28 29 30 31 31 31 30 28 27 26 25 25 25 25 25 25 26 26 26
18 18 18 18 18 18 18 18 18 19 20 20 20 21 21 23 24 23 22 20 19 19 20 21 22 22 22 21 20 21 22 21 20 19 19 20 20 20 19 18 18 18 18 18 17 15 13 14 15 16 14 12 12 14 16 17 18 20 22 23 24 24 25 25 25 25 26 28 29 30 30 30 29 28 28 27 27 26 26 26 26 26 26 26 27 27
17 16 16 16 17 17 17 18 18 19 20 19 19 19 20 22 24 26 26 26 27 27 27 27 27 27 27 26 25 25 25 24 23 22 21 22 22 22 22 21 21 20 19 20 20 18 15 14 15 16 16 14 14 15 18 19 19 20 21 21 21 21 23 23 24 24 26 29 30 30 30 29 28 28 28 27 27 27 27 27 27 27 27 27 27 28
16 16 16 16 16 17 17 17 18 18 19 19 20 21 22 24 25 27 28 29 29 29 29 29 29 29 29 29 29 29 29 28 27 26 25 25 25 25 24 24 23 22 22 22 21 20 18 14 12 11 11 17 21 23 24 24 23 23 24 23 23 23 24 25 25 26 28 29 30 30 30 29 28 27 27 27 27 27 27 28 28 28 27 28 28 28
16 16 16 16 17 17 17 18 18 19 20 21 22 23 24 24 25 26 26 26 26 26 26 27 27 28 28 29 29 30 30 29 29 29 29 29 28 28 26 25 24 24 24 24 23 22 20 17 13 10 8 13 20 24 26 25 25 24 24 24 25 26 27 27 27 27 28 29 29 29 29 29 28 27 27 27 27 27 27 27 27 27 27 27 27 27
16 16 16 17 17 17 18 18 19 19 20 21 21 21 21 22 22 22 22 22 22 23 23 24 25 26 26 27 27 28 29 29 30 30 30 31 32 31 29 27 26 25 24 24 23 22 22 21 20 19 19 18 18 21 22 23 23 23 23 22 22 23 25 26 26 27 28 28 28 27 27 27 27 27 27 27 27 27 27 27 26 26 26 26 25 25
17 17 17 17 17 17 17 17 17 18 18 18 18 18 18 18 18 19 19 20 20 20 21 22 23 24 24 25 26 27 28 29 31 31 32 33 33 32 30 28 26 24 24 23 22 22 22 22 22 22 23 22 22 22 22 23 24 24 23 21 22 23 25 25 26 26 27 27 28 27 27 26 26 26 26 26 26 27 26 26 26 26 26 25 25 24
17 17 16 16 16 15 15 16 17 17 18 18 18 18 18 19 19 20 20 21 21 21 21 21 21 22 23 24 26 26 27 28 29 28 26 25 24 25 25 25 25 24 23 22 22 22 23 22 23 23 23 23 22 21 21 23 24 24 24 23 24 24 25 26 26 25 25 27 27 27 27 26 26 25 25 25 25 25 25 25 26 26 26 26 25 25
17 17 17 17 17 18 19 19 19 19 20 20 20 21 21 20 20 20 20 20 20 20 20 20 20 21 22 22 22 22 20 19 18 19 21 22 23 23 23 24 24 25 24 23 23 23 24 24 24 24 24 24 23 21 20 22 23 24 24 24 23 21 18 21 23 24 25 25 26 27 27 26 25 25 24 24 24 24 24 25 25 25 25 25 25 26
18 18 18 19 19 20 20 20 20 20 20 20 20 20 20 19 19 19 18 19 19 19 19 19 19 19 19 19 19 20 21 23 25 26 26 25 25 25 25 25 25 25 25 26 24 24 24 24 24 25 25 24 24 23 23 22 22 23 24 25 24 21 19 21 23 24 24 24 25 25 25 24 24 24 24 24 24 24 25 25 25 25 25 25 26 26
19 19 19 20 20 20 19 19 19 19 19 19 19 19 19 19 18 17 17 18 18 18 18 18 18 18 18 20 22 23 24 24 24 24 24 23 23 23 24 24 25 25 25 26 25 24 22 21 22 23 23 23 23 23 23 23 23 23 24 25 24 24 25 26 27 26 25 24 24 25 25 25 24 23 23 24 25 25 26 25 26 26 26 26 26 26
19 19 19 19 19 19 19 19 19 19 19 19 19 19 19 18 18 18 17 17 18 18 19 19 18 17 17 18 20 21 21 22 23 23 22 22 22 22 23 24 24 24 24 24 25 25 25 23 22 22 21 20 21 23 23 24 23 23 24 25 24 24 25 26 26 26 25 25 25 26 27 26 25 24 23 24 25 26 26 26 26 26 26 26 26 26
19 19 19 19 19 19 19 19 19 18 19 19 19 19 18 18 18 17 18 18 18 18 19 19 18 17 17 18 19 19 20 21 22 23 22 22 21 21 22 23 24 25 26 26 26 26 27 27 26 24 22 19 19 21 22 23 22 21 22 22 23 22 22 23 24 25 25 25 26 27 27 25 23 22 22 24 25 25 26 26 27 27 27 27 27 27
18 18 19 19 19 19 19 19 18 18 18 19 19 19 19 18 18 18 18 18 18 18 18 18 17 18 18 19 19 19 19 20 21 22 22 22 22 21 21 21 22 24 25 27 28 29 29 29 30 29 26 24 22 21 21 21 20 19 19 19 19 19 20 22 24 24 25 26 27 28 27 24 22 22 22 22 22 23 24 25 26 27 27 27 27 27
18 19 19 19 19 19 18 19 19 18 18 19 19 19 19 19 18 18 17 18 18 18 18 17 17 18 17 18 19 19 19 20 20 21 22 22 21 21 20 20 21 22 23 25 26 28 29 30 31 31 30 28 26 24 24 24 23 22 20 20 20 21 21 22 24 25 25 25 27 28 28 26 25 24 23 21 21 23 24 25 25 26 27 28 28 28
19 19 19 19 19 19 18 18 18 18 19 19 19 19 19 19 18 18 17 17 17 17 17 17 17 17 17 18 19 19 19 20 20 21 21 21 20 20 19 20 20 19 20 20 20 21 22 23 25 27 29 29 28 27 25 25 25 24 23 23 23 23 23 24 25 26 26 26 26 27 27 26 26 25 23 21 20 22 24 24 25 26 27 28 28 28
19 19 19 19 18 18 19 18 18 18 19 19 19 19 19 19 18 18 18 17 17 17 18 18 17 17 18 19 19 20 19 19 19 20 21 21 20 19 19 19 18 17 16 14 14 13 12 12 13 17 21 24 26 27 26 25 23 22 21 22 23 23 23 24 25 26 26 26 26 26 25 24 23 23 22 20 19 19 20 22 24 26 27 27 27 28
Wind_Direction
303 304 306 309 310 308 304 304 303 300 297 295 295 295 295 296 297 297 297 297 298 297 298 298 299 298 296 295 294 293 292 292 292 291 291 291 291 291 290 288 287 285 283 281 280 279 278 278 279 279 280 281 282 282 282 283 284 286 287 288 289 290 290 291 292 294 295 296 297 298 299 298 298 297 296 294 289 283 276 273 275 277 277 266 251 240
301 301 302 304 302 298 295 298 298 295 293 293 293 292 292 292 293 293 294 294 293 292 292 293 294 295 295 296 295 295 294 294 293 292 292 292 292 291 290 289 288 286 283 281 279 278 277 276 277 278 279 280 281 281 282 283 283 285 285 286 285 285 285 286 288 290 291 292 294 296 298 299 300 299 299 299 296 290 281 274 271 273 276 273 260 248
294 293 290 289 287 284 283 285 285 285 285 285 287 289 291 292 292 292 292 291 289 287 286 286 288 291 292 293 294 294 294 294 293 293 293 293 292 292 291 290 289 288 286 284 282 280 279 278 278 277 277 278 278 279 280 281 282 283 283 282 282 281 282 283 285 287 288 290 292 295 298 300 301 300 300 300 300 296 288 279 272 269 271 273 268 257
288 285 283 282 279 276 276 278 278 279 279 280 281 283 284 285 285 286 286 285 284 283 281 283 286 289 291 292 293 294 294 294 294 294 294 294 293 292 292 291 291 290 288 286 284 282 281 279 278 277 276 275 275 276 277 278 280 280 280 280 279 279 280 283 285 287 289 291 293 296 298 300 301 301 300 300 300 298 294 285 276 270 268 271 272 266
288 285 284 282 279 276 275 275 276 277 278 279 280 280 280 280 281 281 281 281 282 283 283 285 287 289 292 293 294 295 295 296 296 295 294 293 292 292 291 290 289 287 286 285 283 282 280 279 278 277 276 275 274 275 275 277 278 278 278 278 279 280 282 284 286 288 290 292 294 296 298 300 300 300 299 298 298 298 296 290 281 274 269 269 271 271
290 289 290 288 286 284 283 282 283 285 287 288 289 289 288 288 288 289 288 288 288 288 288 288 289 291 292 293 294 294 295 295 295 294 293 292 291 290 289 288 286 285 284 284 282 281 281 280 280 279 279 278 277 276 276 276 277 278 278 279 281 282 284 285 286 288 289 291 293 295 296 297 298 298 298 297 296 296 296 293 286 278 272 269 270 271
291 290 292 292 291 289 290 290 291 294 297 299 298 297 296 296 296 296 296 295 294 293 291 290 290 291 291 291 292 292 293 292 292 291 290 289 289 288 287 286 286 286 286 287 287 287 287 286 286 285 284 283 282 281 279 278 278 278 279 280 281 282 283 284 285 286 287 288 290 291 293 294 295 295 295 295 295 296 296 294 290 283 277 272 270 270
294 294 294 294 294 293 292 292 294 298 301 304 305 305 303 302 300 299 298 298 297 296 296 294 293 291 290 289 289 289 289 289 289 288 288 288 287 287 287 287 288 290 291 292 293 293 292 291 290 289 287 286 286 285 283 281 279 277 276 276 277 277 278 279 280 282 283 284 285 287 288 290 291 292 293 294 295 296 296 296 293 289 283 277 273 271
297 298 298 297 298 300 299 297 298 301 304 306 309 310 309 307 305 302 301 300 299 299 299 299 298 295 292 290 289 289 288 288 289 289 290 290 290 289 290 291 292 293 294 295 294 294 292 290 289 288 287 285 284 283 282 280 277 275 273 272 272 273 273 275 276 277 278 279 280 282 283 285 287 289 291 293 295 296 297 298 297 294 289 283 277 273
299 300 301 300 299 301 302 302 302 304 306 306 306 307 309 310 311 310 308 305 303 302 301 301 302 301 299 296 294 293 293 291 290 290 290 291 291 291 292 293 294 294 293 292 291 289 288 287 285 284 283 282 280 279 277 276 274 272 270 269 270 270 272 273 274 275 276 277 277 279 280 282 284 286 289 292 294 296 297 298 299 297 294 288 282 276
303 303 302 301 301 300 299 300 302 305 306 305 304 304 304 308 314 318 317 311 308 306 304 303 303 304 304 302 300 299 298 296 294 292 291 291 291 291 291 291 291 290 289 287 285 284 283 282 281 280 279 278 276 275 273 272 270 269 267 267 268 269 271 274 276 277 277 277 277 278 278 280 282 285 288 290 293 294 295 297 298 298 297 293 287 281
302 303 302 300 301 302 300 301 302 305 308 309 309 307 303 305 312 316 315 309 306 306 305 304 301 300 300 300 301 300 299 297 296 295 294 292 291 291 290 288 286 284 282 280 279 279 278 278 278 278 277 276 275 274 273 271 270 269 268 268 268 270 273 276 278 279 279 279 278 278 278 278 280 282 285 288 290 292 293 294 295 295 296 295 292 286
298 299 299 298 299 300 302 305 307 308 310 310 308 305 303 305 308 309 305 301 300 301 303 302 300 298 296 296 297 297 296 295 294 293 292 291 290 289 287 284 282 280 279 278 277 276 276 277 277 277 277 277 277 276 275 275 274 273 273 273 273 275 277 279 281 282 282 282 281 280 279 279 279 280 282 285 287 289 290 291 291 292 293 293 292 290
295 296 295 295 295 297 300 303 304 304 304 302 300 298 299 301 303 303 300 297 296 298 301 300 299 298 297 296 295 294 294 293 291 290 288 286 285 285 284 282 281 281 281 281 280 279 278 279 280 280 280 280 280 280 280 280 280 279 279 280 280 281 281 283 284 284 285 285 285 284 283 282 281 281 282 284 285 286 287 288 288 289 289 290 290 289
293 294 291 289 291 293 295 297 296 294 294 294 294 294 296 296 298 298 297 296 297 300 303 301 300 299 297 296 297 297 295 291 290 289 288 286 284 284 284 284 284 284 284 285 284 283 282 282 283 284 283 283 284 285 285 286 286 286 286 285 285 285 284 284 284 285 285 285 286 286 285 285 284 284 284 284 284 284 284 284 285 285 286 286 287 287
301 298 293 292 293 295 295 295 293 291 291 293 293 293 293 292 293 294 293 293 297 302 303 304 303 301 298 298 299 298 295 292 292 294 294 291 288 286 287 288 288 288 287 286 286 285 284 283 284 285 285 286 286 287 288 289 289 289 289 288 288 287 286 285 284 284 284 285 285 286 286 286 286 286 285 284 283 283 282 282 283 283 284 283 283 284
306 303 300 300 299 300 302 302 299 297 297 297 295 293 290 288 289 289 288 291 295 298 299 300 302 302 301 300 299 297 296 296 297 298 297 293 289 287 287 287 288 288 287 286 285 285 284 284 284 285 286 286 287 289 289 290 290 290 290 289 289 288 287 286 286 285 285 285 285 286 286 286 286 286 285 284 283 282 282 282 282 283 283 282 282 282
302 301 301 300 299 299 302 303 302 301 300 298 297 295 293 290 289 289 287 289 292 293 293 293 290 288 294 296 295 295 297 296 296 295 292 288 286 285 284 282 281 282 283 283 282 282 283 283 284 285 286 286 287 288 289 289 290 291 291 291 291 290 289 289 288 287 287 287 286 286 286 286 286 286 285 285 284 284 283 283 283 283 282 282 281 281
297 296 295 294 294 294 295 295 295 295 295 295 296 296 294 293 292 292 290 290 289 288 287 286 284 282 283 286 289 292 295 292 289 287 284 283 282 282 280 278 277 278 279 279 279 280 282 283 284 285 285 286 287 288 289 290 291 292 292 292 292 291 290 289 289 288 288 287 287 287 286 285 285 285 285 286 285 286 285 285 285 284 283 281 281 281
293 290 288 288 290 290 290 290 289 290 291 293 294 295 294 294 294 292 289 288 286 283 281 280 279 280 283 285 288 292 294 291 286 282 280 281 281 281 281 281 280 279 278 276 276 278 280 281 282 284 285 286 287 289 290 292 292 293 292 291 290 289 288 287 287 287 286 286 286 286 285 285 285 285 285 285 286 286 286 286 286 285 284 282 281 280
287 286 285 285 286 286 287 286 286 286 287 289 291 291 292 292 291 289 287 286 284 280 278 276 276 278 282 284 286 287 288 286 283 282 282 282 281 280 280 280 278 277 275 275 275 276 277 278 280 281 283 285 286 288 290 291 291 290 289 288 287 286 285 285 285 284 284 284 284 284 284 284 284 284 284 284 285 285 285 285 286 286 285 284 282 280
282 282 284 284 282 280 281 282 283 283 283 283 282 282 283 285 285 284 283 281 278 275 273 272 273 275 277 279 280 282 282 278 275 275 279 279 277 276 278 277 275 273 272 273 274 275 275 275 276 278 280 282 284 286 287 288 288 287 287 286 285 284 284 283 283 283 282 283 283 283 283 283 283 283 283 283 284 283 284 285 285 286 286 285 283 281
280 280 282 283 281 279 278 279 281 281 281 279 275 273 273 273 274 275 275 272 270 268 268 269 270 272 274 275 278 280 278 273 268 267 269 271 273 275 277 275 271 269 268 270 272 273 273 273 273 275 278 280 282 283 285 285 286 286 286 285 284 284 283 282 282 281 281 282 282 282 282 282 283 283 283 283 283 283 284 284 285 285 285 285 284 282
280 279 279 279 278 277 276 275 277 277 277 275 273 272 272 272 272 272 270 267 264 263 263 266 269 272 275 279 282 282 279 272 265 261 259 261 267 271 273 271 269 268 268 268 270 271 271 271 271 274 276 279 281 282 283 284 284 285 286 286 285 284 283 283 282 282 281 282 282 282 282 282 283 283 283 283 283 284 284 285 285 284 284 283 283 283
284 282 282 281 281 280 279 279 278 278 276 273 271 270 272 273 272 270 267 263 260 260 262 266 271 278 285 290 290 287 284 277 266 257 252 257 263 266 268 267 267 267 269 270 270 270 270 269 270 272 275 277 279 281 282 283 284 285 286 286 286 285 285 284 283 283 283 283 283 283 283 283 282 282 281 282 282 282 284 284 284 282 282 282 281 281
291 290 291 290 289 289 289 289 289 287 284 281 277 273 271 270 269 265 261 257 255 259 266 274 281 287 293 294 292 289 287 282 269 256 249 253 261 265 266 266 266 266 269 270 270 268 268 269 270 272 274 277 279 281 282 284 286 286 287 287 287 286 286 286 285 285 285 285 286 286 286 285 283 281 280 279 280 281 283 284 284 283 282 282 281 280
295 293 293 293 292 292 293 293 293 293 292 290 288 284 281 278 275 270 262 259 266 279 286 289 291 294 295 291 288 287 288 284 273 262 254 255 260 265 267 268 267 266 267 269 269 267 266 268 270 272 275 278 281 283 284 285 287 287 287 287 287 287 287 287 287 287 287 288 289 290 288 286 283 280 279 280 282 283 285 285 285 285 286 286 285 283
294 293 292 293 293 293 294 293 293 293 294 293 293 291 289 287 285 282 281 288 298 300 296 293 293 293 291 287 286 287 290 288 284 276 268 261 260 265 269 270 267 265 267 270 270 267 265 266 269 273 276 279 281 284 285 286 286 286 285 284 284 285 286 286 287 287 288 290 291 291 289 286 283 281 281 284 286 287 287 287 287 287 288 288 287 285
295 294 294 295 295 294 295 294 294 293 293 293 293 292 291 289 287 287 289 295 299 297 292 289 287 285 284 285 287 288 287 286 286 284 277 266 262 265 272 272 267 264 267 274 277 273 267 267 271 275 277 279 281 282 284 284 283 282 281 281 281 281 282 284 286 287 288 289 290 289 288 287 285 284 284 286 288 288 289 289 288 288 288 287 285 284
300 300 300 299 299 298 298 297 296 295 294 293 291 290 289 286 284 284 285 288 288 286 283 282 280 279 280 285 287 286 283 282 284 284 279 270 267 273 285 284 276 271 272 281 286 281 274 274 276 278 279 279 279 278 279 279 279 278 278 278 278 278 280 283 286 287 288 288 287 286 285 284 284 285 286 288 289 289 290 290 289 288 286 285 283 281
306 305 304 304 304 304 303 302 301 299 297 294 292 289 287 284 281 279 279 279 277 275 274 275 275 275 277 282 285 282 280 281 282 285 288 282 281 286 299 299 290 283 279 280 285 292 285 283 282 281 281 279 276 274 273 273 273 273 274 275 276 278 281 284 286 287 286 285 284 283 282 282 283 284 286 287 288 289 290 290 289 287 285 282 280 278
307 306 304 305 305 305 304 303 302 300 297 295 292 289 286 282 277 274 273 272 271 270 270 271 272 273 273 273 271 271 275 278 278 281 286 285 284 285 289 289 286 283 280 275 272 274 285 288 285 283 281 278 274 271 268 267 267 268 269 272 274 277 281 283 285 284 283 282 282 281 281 282 283 284 285 286 287 288 288 288 286 284 282 280 277 275
306 305 303 303 302 301 299 298 296 295 294 293 291 289 286 282 278 275 273 272 270 268 267 268 270 271 271 270 268 269 273 277 281 283 285 283 281 281 281 278 277 278 280 275 271 269 273 278 283 283 279 275 272 268 265 263 263 264 266 268 271 274 277 279 279 279 278 278 279 280 282 283 285 285 286 286 285 285 285 284 282 280 279 277 275 272
305 303 302 300 298 297 295 295 294 292 292 292 292 291 290 289 289 287 284 278 272 267 263 262 265 269 271 271 272 274 278 283 288 290 288 283 281 282 283 278 275 278 281 279 274 271 272 274 276 278 276 273 270 266 264 262 261 262 264 265 267 268 271 272 273 272 273 275 277 279 281 283 285 285 285 284 283 282 281 280 278 276 275 275 275 273
306 303 301 299 297 296 296 295 294 293 292 292 291 292 292 293 291 286 281 276 271 266 264 266 269 272 276 280 282 282 283 285 287 288 286 283 283 286 287 283 282 283 285 281 277 275 274 272 271 270 270 271 269 266 262 261 262 264 265 265 265 265 266 266 266 267 269 272 275 278 280 282 283 283 282 281 281 280 279 278 276 274 273 273 273 273
308 305 302 300 299 298 297 295 294 293 292 291 290 290 291 291 289 287 285 285 286 287 286 285 283 282 280 279 279 280 282 283 284 284 281 280 281 283 283 281 281 281 281 279 277 277 276 276 274 271 270 272 273 271 268 268 270 272 271 269 266 264 263 262 262 263 267 270 273 275 277 278 279 279 279 279 279 279 278 277 275 274 273 271 271 271
307 305 303 302 300 298 297 295 293 292 291 290 290 289 288 289 290 292 295 296 297 297 295 292 289 286 283 279 278 277 278 280 281 280 278 278 278 278 278 278 277 276 275 275 276 277 278 279 279 279 278 277 278 279 279 280 281 280 277 274 270 266 264 264 263 265 267 270 272 273 275 275 275 275 276 276 277 277 277 276 275 274 273 271 270 269
302 301 301 299 298 296 295 293 292 291 291 290 289 289 288 288 288 290 291 293 294 294 293 292 290 287 285 283 281 279 278 278 278 277 276 275 274 274 273 274 274 272 270 270 272 274 275 276 276 277 276 275 275 276 278 280 280 279 278 276 272 269 267 267 267 268 269 270 272 273 273 273 272 272 273 273 274 274 274 274 274 274 274 274 273 271
300 298 296 295 294 292 291 290 290 289 289 288 289 289 289 289 289 289 290 291 292 293 293 292 290 289 289 288 286 284 282 280 278 277 276 275 272 270 268 268 269 268 268 267 267 268 268 267 267 267 270 273 273 274 274 275 275 275 276 275 273 270 268 268 268 269 269 270 270 270 271 271 271 270 270 270 270 270 270 271 272 273 274 275 275 274
296 294 292 292 292 291 290 289 289 289 291 292 294 295 296 296 296 296 296 295 294 294 293 292 291 290 289 288 287 286 284 282 280 278 276 274 271 268 264 263 263 265 265 264 263 262 262 262 263 265 267 269 271 272 273 272 271 271 273 273 272 269 268 267 267 267 267 268 267 267 267 268 268 267 266 266 266 266 266 267 269 270 272 273 273 274
296 295 294 295 295 295 294 294 297 299 302 304 304 304 303 302 302 301 299 297 295 292 291 291 289 288 286 284 283 282 281 280 278 276 273 271 269 267 264 262 261 261 262 262 260 258 257 259 261 264 265 266 268 269 269 268 268 268 268 268 268 268 269 268 267 266 266 266 266 266 266 265 265 264 263 263 263 263 263 264 266 268 269 269 269 268
300 300 301 303 305 307 308 309 310 309 309 308 306 304 302 300 299 298 297 295 293 292 291 290 289 287 286 284 282 280 277 275 273 273 272 273 274 274 272 269 267 265 264 263 261 259 257 257 259 261 263 264 265 266 266 266 266 265 264 264 265 268 270 269 267 266 265 265 264 264 264 263 261 259 259 259 260 261 263 263 264 266 266 267 266 264
305 306 307 309 311 311 310 310 309 308 306 304 302 300 299 298 297 295 294 293 292 291 290 290 289 288 286 283 282 281 280 278 279 282 285 288 290 288 284 279 275 272 268 264 262 261 260 257 255 256 258 260 261 263 264 265 265 264 263 261 262 264 266 267 268 267 266 264 263 262 261 260 259 258 258 259 260 262 264 265 265 265 264 264 263 262
306 306 307 307 307 306 306 305 305 304 304 302 300 299 299 298 297 294 292 292 292 293 293 294 293 291 290 289 290 290 291 290 291 290 289 288 285 283 281 279 276 273 270 265 263 262 262 259 257 256 256 256 257 259 261 262 262 262 261 260 258 256 257 262 266 267 266 265 263 262 260 259 260 261 262 263 264 265 265 266 266 265 263 262 262 261
303 303 303 304 305 305 305 304 304 304 303 302 300 300 300 300 299 297 295 295 295 295 296 297 297 295 291 290 290 291 291 290 289 288 286 284 282 279 277 275 274 273 271 268 266 265 263 262 261 259 258 255 254 254 257 259 260 260 260 259 256 253 254 258 260 262 263 263 263 263 263 264 264 265 266 266 266 265 265 265 264 263 262 261 260 259
302 302 303 304 305 305 305 305 304 303 302 301 300 300 300 300 300 298 296 296 296 295 295 295 293 290 287 287 288 290 291 291 290 289 288 285 283 280 277 274 272 271 270 269 269 269 269 269 269 268 265 260 256 254 254 256 258 258 258 259 256 254 255 256 256 257 258 260 262 264 266 266 266 265 264 265 265 265 264 263 262 261 260 259 258 257
303 304 305 305 305 305 304 304 303 301 300 300 300 300 300 301 300 299 297 296 295 295 295 294 291 286 284 286 288 290 290 291 291 291 290 289 286 282 279 276 273 271 269 268 268 269 270 271 272 272 271 268 265 263 260 259 257 256 256 256 254 252 252 253 255 256 258 260 262 265 266 266 264 262 261 262 263 264 264 263 261 260 258 258 257 256
305 305 305 305 304 303 302 302 301 300 300 299 300 301 301 301 300 299 298 297 296 296 295 294 291 288 286 286 287 288 288 289 290 291 291 291 289 287 283 280 277 274 271 269 268 267 266 267 267 267 267 268 269 270 269 267 263 260 259 257 255 253 253 255 257 259 261 262 263 264 264 262 259 257 258 259 261 262 263 263 262 261 259 257 256 256
305 304 303 303 302 301 300 301 301 300 299 299 300 301 301 300 300 298 297 296 295 294 293 291 290 289 288 287 288 288 288 288 288 289 289 290 290 289 287 284 281 278 275 272 269 267 266 265 264 262 259 259 261 264 267 268 267 266 264 262 260 259 260 261 262 263 263 263 263 264 263 260 257 255 255 256 258 260 262 263 263 261 260 259 257 256
303 303 302 301 300 299 299 299 299 299 299 299 299 300 300 300 299 297 295 294 293 291 289 288 288 288 287 288 288 288 287 286 286 286 286 287 287 287 286 285 284 281 278 274 271 269 268 267 265 262 259 255 252 253 257 261 263 263 261 260 260 259 260 262 263 263 263 262 262 262 261 259 257 254 251 250 253 257 260 261 262 262 261 260 259 258
302 302 301 300 299 298 298 298 298 298 298 298 299 299 300 300 299 298 296 294 292 290 289 287 286 284 284 285 286 285 285 284 283 283 284 286 287 286 285 284 283 281 279 278 275 274 273 272 270 268 264 258 251 246 245 249 253 256 256 256 255 255 256 258 260 261 261 260 260 260 260 258 255 252 248 247 249 253 257 259 260 262 262 262 261 260